[[{"header":{"parameterUnit":"m.s-1","parameterCategory":2,"la1":30.2991,"la2":30.254,"lo1":-89.0895,"lo2":-89.0444,"dy":0.0017,"dx":0.0017,"nx":28,"ny":28,"refTime":"2024-02-06T09:00:00:Z","depth":"0","parameterNumber":2,"parameterNumberName":"U-component_of_CURRENTS"},"data":[0,0,0,0,0,0,0,0,0,0,0,0,0,0,0,0,0,0,0,0,0,0,0,0,0,0,0,0,0,0,0,0,0,0,0,0,0,0,0,0,0,0,0,0,0,0,0,0,0,0,0,0,0,0,0,0,0,0,-0.2115,-0.2115,0,-0.213,-0.213,-0.213,-0.2107,-0.2106,-0.2106,-0.2105,-0.2075,-0.2074,-0.2074,0,0,0,0,0,0,0,0,0,0,0,0,0,-0.2068,-0.2069,-0.2115,-0.2115,-0.2116,-0.213,-0.213,-0.213,-0.2107,-0.2106,-0.2106,-0.2105,-0.2075,-0.2075,-0.2074,0,0,0,0,0,0,0,0,0,0,0,0,0,-0.2085,-0.2069,-0.2115,-0.2107,-0.2107,-0.213,-0.213,-0.213,-0.2107,-0.2106,-0.2105,-0.2105,-0.2075,-0.2075,-0.2074,-0.2091,0,0,-0.2073,-0.2073,0,0,0,0,0,0,0,0,-0.2084,-0.2086,-0.2108,-0.2108,-0.2108,-0.2117,-0.2102,-0.2115,-0.2108,-0.2105,-0.2105,-0.2104,-0.2087,-0.2085,-0.2088,-0.209,-0.2089,-0.2073,-0.2073,-0.2073,-0.2073,0,0,0,0,0,0,0,-0.2083,-0.2085,-0.2119,-0.2109,-0.2108,-0.2104,-0.2105,-0.2105,-0.2099,-0.2105,-0.2104,-0.2109,-0.2086,-0.2089,-0.2087,-0.2088,-0.2073,-0.2073,-0.2073,-0.2073,-0.2112,-0.2113,0,0,0,0,0,0,-0.2086,-0.2084,-0.2119,-0.212,-0.2095,-0.2106,-0.2107,-0.2114,-0.21,-0.2098,-0.211,-0.2108,-0.209,-0.2088,-0.2086,-0.211,-0.2073,-0.2073,-0.2072,-0.2111,-0.2112,-0.2114,0,0,0,0,0,0,-0.2084,-0.2089,-0.2118,-0.2103,-0.2107,-0.2108,-0.2115,-0.2114,-0.2113,-0.2104,-0.21,-0.2109,-0.2089,-0.2087,-0.2089,-0.2108,-0.2072,-0.2072,-0.2109,-0.2111,-0.2113,-0.2155,0,0,0,0,0,0,-0.2083,-0.2088,-0.2089,-0.2104,-0.2108,-0.2134,-0.2117,-0.2116,-0.2119,-0.2116,-0.2103,-0.2099,-0.2088,-0.2089,-0.2088,-0.2107,-0.2072,-0.2108,-0.211,-0.2112,-0.2152,-0.2158,-0.2163,0,0,0,0,0,-0.2081,-0.2091,-0.2089,-0.2093,-0.2112,-0.2135,-0.2137,-0.2133,-0.212,-0.2126,-0.2116,-0.2099,-0.2103,-0.209,-0.2088,-0.2108,-0.2106,-0.2109,-0.2112,-0.215,-0.2157,-0.2163,0,0,0,0,0,0,-0.2068,-0.2091,-0.2088,-0.2103,-0.2118,-0.2132,-0.2135,-0.2135,-0.2133,-0.2125,-0.2111,-0.2107,-0.2119,-0.211,-0.2095,-0.2128,-0.2104,-0.2107,-0.2133,-0.214,-0.2146,-0.2145,-0.2072,0,0,0,0,0,-0.2068,-0.2078,-0.2101,-0.2109,-0.2119,-0.2126,-0.2133,-0.2134,-0.2138,-0.2136,-0.2129,-0.2125,-0.2132,-0.2131,-0.2133,-0.2148,-0.2124,-0.2162,-0.2168,-0.2172,-0.2172,-0.2162,-0.2166,-0.2123,-0.2123,-0.2123,0,0,-0.2064,-0.2077,-0.2082,-0.2107,-0.2114,-0.2141,-0.2127,-0.2141,-0.2161,-0.2133,-0.2148,-0.2142,-0.2141,-0.2159,-0.2164,-0.2151,-0.2171,-0.2176,-0.218,-0.2177,-0.2166,-0.217,-0.2173,-0.2125,-0.2124,-0.2124,0,0,-0.2069,-0.2074,-0.2089,-0.211,-0.2131,-0.2143,-0.2149,-0.2168,-0.2171,-0.2189,-0.2178,-0.2183,-0.219,-0.2195,-0.2199,-0.2238,-0.2201,-0.2242,-0.2267,-0.2258,-0.2261,-0.2264,-0.2227,-0.2226,-0.2244,-0.2244,-0.2244,0,-0.2061,-0.2084,-0.2096,-0.2123,-0.214,-0.2147,-0.2174,-0.2189,-0.2205,-0.221,-0.2197,-0.2213,-0.221,-0.2235,-0.2252,-0.225,-0.2227,-0.224,-0.2264,-0.2266,-0.2268,-0.2229,-0.2227,-0.2247,-0.2246,-0.2246,-0.2246,0,-0.2085,-0.2105,-0.2116,-0.2152,-0.2175,-0.2196,-0.2227,-0.2244,-0.2245,-0.2256,-0.2273,-0.2269,-0.2274,-0.2284,-0.2279,-0.2301,-0.2273,-0.2271,-0.2243,-0.2274,-0.2232,-0.2229,-0.225,-0.2249,-0.2248,-0.2248,0,0,-0.2057,-0.212,-0.2121,-0.2145,-0.2191,-0.2213,-0.2253,-0.2286,-0.2303,-0.2315,-0.2328,-0.235,-0.2335,-0.2338,-0.2333,-0.2331,-0.2323,-0.2309,-0.2307,-0.2264,-0.2279,-0.2219,-0.221,-0.2323,-0.2323,-0.2323,-0.224,0,-0.2065,-0.2117,-0.2148,-0.2195,-0.2225,-0.2257,-0.2293,-0.2326,-0.234,-0.2356,-0.2356,-0.2366,-0.2361,-0.2357,-0.2358,-0.2334,-0.232,-0.2344,-0.2262,-0.2259,-0.2196,-0.2207,-0.2146,-0.2064,-0.2237,-0.2236,-0.2236,0,-0.2071,-0.2106,-0.2153,-0.2219,-0.2234,-0.2265,-0.2313,-0.2348,-0.238,-0.2388,-0.2397,-0.2392,-0.2397,-0.2382,-0.235,-0.2364,-0.2325,-0.2301,-0.2297,-0.2224,-0.2194,-0.2064,-0.2052,-0.2039,-0.2231,-0.2231,-0.2232,0,-0.2035,-0.2107,-0.214,-0.2164,-0.2241,-0.2264,-0.2301,-0.2347,-0.237,-0.2399,-0.2405,-0.241,-0.2401,-0.2371,-0.2326,-0.2336,-0.2272,-0.2276,-0.2181,-0.2175,-0.2098,-0.2085,-0.2057,-0.2245,-0.2245,-0.2245,-0.2245,0,-0.2025,-0.2051,-0.2126,-0.2144,-0.2183,-0.2246,-0.228,-0.2319,-0.2361,-0.2374,-0.2409,-0.2404,-0.24,-0.2366,-0.2323,-0.2234,-0.2264,-0.2178,-0.2153,-0.211,-0.21,-0.2065,-0.2086,-0.2242,-0.2243,-0.2243,-0.2244,0,-0.1971,-0.2023,-0.2065,-0.2143,-0.2165,-0.2188,-0.2261,-0.2279,-0.2337,-0.2351,-0.2358,-0.2392,-0.2346,-0.2319,-0.226,-0.2217,-0.2105,-0.2105,-0.2041,-0.201,-0.1911,-0.1937,-0.185,-0.1796,-0.1984,-0.1982,-0.1981,0,-0.1946,-0.1962,-0.2039,-0.2052,-0.2082,-0.2131,-0.2154,-0.224,-0.2261,-0.2327,-0.2319,-0.2312,-0.2276,-0.2176,-0.2104,-0.2005,-0.2007,-0.1898,-0.1914,-0.189,-0.1902,-0.1904,-0.1866,-0.1821,-0.1818,-0.1816,-0.1814,0,-0.1885,-0.191,-0.1938,-0.197,-0.1997,-0.2037,-0.2084,-0.2105,-0.2192,-0.2209,-0.2211,-0.2195,-0.2133,-0.202,-0.1924,-0.186,-0.1859,-0.1846,-0.1847,-0.179,-0.1766,-0.1707,-0.1879,-0.1794,-0.1796,-0.1797,-0.1798,-0.1799,-0.1817,-0.1819,-0.1849,-0.1868,-0.1899,-0.1918,-0.1909,-0.1965,-0.1982,-0.1984,-0.2046,-0.1998,-0.1963,-0.1821,-0.1761,-0.1655,-0.1686,-0.1613,-0.1648,-0.1652,-0.1602,-0.1715,-0.1594,-0.1595,-0.1595,-0.1596,-0.1597,0,-0.1725,-0.1732,-0.1743,-0.1762,-0.1745,-0.1802,-0.183,-0.1796,-0.1766,-0.1807,-0.1785,-0.1768,-0.1676,-0.1654,-0.1564,-0.1492,-0.1457,-0.1456,-0.1466,-0.1436,-0.1549,-0.1545,-0.1378,-0.1378,-0.1378,-0.1378,-0.1378,-0.1378,-0.1674,-0.1646,-0.1653,-0.1593,-0.1598,-0.1537,-0.1523,-0.1492,-0.1498,-0.1454,-0.1465,-0.1522,-0.1531,-0.1602,-0.1506,-0.1434,-0.1399,-0.1346,-0.1353,-0.1473,-0.1492,-0.1509,-0.151,-0.1338,-0.1338,-0.1187,-0.1186,-0.1185]},{"header":{"parameterUnit":"m.s-1","parameterCategory":2,"la1":30.2991,"la2":30.254,"lo1":-89.0895,"lo2":-89.0444,"dy":0.0017,"dx":0.0017,"nx":28,"ny":28,"refTime":"2024-02-06T09:00:00:Z","depth":"0","parameterNumber":3,"parameterNumberName":"V-component_of_CURRENTS"},"data":[0,0,0,0,0,0,0,0,0,0,0,0,0,0,0,0,0,0,0,0,0,0,0,0,0,0,0,0,0,0,0,0,0,0,0,0,0,0,0,0,0,0,0,0,0,0,0,0,0,0,0,0,0,0,0,0,0,0,-0.0243,-0.0242,0,-0.0197,-0.0196,-0.0196,-0.0165,-0.0164,-0.0164,-0.0164,-0.0078,-0.0076,-0.0074,0,0,0,0,0,0,0,0,0,0,0,0,0,-0.0261,-0.0261,-0.0243,-0.0242,-0.0242,-0.0197,-0.0196,-0.0196,-0.0165,-0.0164,-0.0164,-0.0164,-0.0079,-0.0076,-0.0074,0,0,0,0,0,0,0,0,0,0,0,0,0,-0.0237,-0.0261,-0.0243,-0.0221,-0.0219,-0.0197,-0.0196,-0.0195,-0.0165,-0.0164,-0.0164,-0.0164,-0.0079,-0.0076,-0.0073,-0.0058,0,0,-0.0063,-0.0062,0,0,0,0,0,0,0,0,-0.0239,-0.0236,-0.0225,-0.0223,-0.022,-0.0187,-0.0171,-0.0148,-0.0165,-0.0184,-0.0164,-0.0164,-0.0111,-0.0106,-0.0097,-0.0054,-0.005,-0.0063,-0.0061,-0.006,-0.0059,0,0,0,0,0,0,0,-0.024,-0.0238,-0.0224,-0.0225,-0.0222,-0.02,-0.0196,-0.0166,-0.0148,-0.0183,-0.0181,-0.0177,-0.011,-0.01,-0.0094,-0.0049,-0.0063,-0.006,-0.0058,-0.0057,0.0016,0.0016,0,0,0,0,0,0,-0.025,-0.024,-0.0225,-0.0222,-0.023,-0.02,-0.0196,-0.0197,-0.0149,-0.0143,-0.0177,-0.0176,-0.0106,-0.0098,-0.0091,-0.0068,-0.006,-0.0057,-0.0055,0.0016,0.0016,0.0016,0,0,0,0,0,0,-0.0251,-0.025,-0.0227,-0.023,-0.0226,-0.02,-0.0201,-0.0196,-0.0188,-0.0146,-0.0138,-0.0174,-0.0105,-0.0096,-0.0066,-0.0064,-0.0055,-0.0052,0.0016,0.0016,0.0016,-0.0022,0,0,0,0,0,0,-0.0252,-0.025,-0.0255,-0.0231,-0.0226,-0.022,-0.0202,-0.0196,-0.0186,-0.0184,-0.014,-0.0132,-0.0104,-0.0071,-0.0062,-0.0059,-0.005,0.0016,0.0016,0.0016,-0.002,-0.0023,-0.0025,0,0,0,0,0,-0.0253,-0.0263,-0.0256,-0.0254,-0.0234,-0.022,-0.0215,-0.0195,-0.0186,-0.0186,-0.0154,-0.0133,-0.0065,-0.0068,-0.0058,-0.0054,0.0016,0.0016,0.0016,-0.0019,-0.0022,-0.0025,0,0,0,0,0,0,-0.0272,-0.026,-0.0252,-0.0257,-0.0242,-0.0215,-0.0214,-0.0199,-0.0174,-0.0172,-0.0131,-0.0121,-0.0095,-0.007,-0.0075,-0.0034,-0.0022,-0.002,-0.0052,-0.0054,-0.0057,-0.0066,-0.0047,0,0,0,0,0,-0.028,-0.0285,-0.0265,-0.0269,-0.0265,-0.024,-0.0232,-0.0219,-0.0194,-0.0183,-0.0152,-0.0118,-0.0088,-0.0068,-0.004,-0.0015,0.0018,-0.0007,-0.0009,-0.0012,-0.0013,0.0043,0.0046,0.0016,0.0016,0.0016,0,0,-0.0289,-0.0282,-0.0285,-0.0274,-0.0261,-0.026,-0.0235,-0.0228,-0.0222,-0.0177,-0.0159,-0.0127,-0.0084,-0.0058,-0.0044,-0.0036,0.0013,-0.0012,-0.0014,-0.0014,0.0043,0.0046,0.0049,0.0016,0.0016,0.0016,0,0,-0.0314,-0.0304,-0.0319,-0.0308,-0.0295,-0.0277,-0.0278,-0.0253,-0.0237,-0.0216,-0.0182,-0.0146,-0.0105,-0.0069,-0.0046,-0.0043,-0.0004,-0.0039,-0.0053,0.0001,0.0004,0.0008,0.0048,0.0055,-0.0036,-0.0036,-0.0036,0,-0.0326,-0.0342,-0.032,-0.0329,-0.0324,-0.0289,-0.03,-0.0277,-0.0244,-0.0227,-0.0217,-0.0144,-0.0108,-0.0064,-0.0065,-0.0047,-0.0017,-0.0046,-0.0001,0.0002,0.0006,0.0047,0.0055,-0.0038,-0.0038,-0.0038,-0.0038,0,-0.0362,-0.0372,-0.0379,-0.0379,-0.0367,-0.0371,-0.0338,-0.0322,-0.0298,-0.0268,-0.0224,-0.0171,-0.0125,-0.0109,-0.0086,-0.0042,-0.0031,-0.0014,0.0005,0.0007,0.0049,0.0059,-0.0041,-0.004,-0.004,-0.0039,0,0,-0.0396,-0.0405,-0.0407,-0.0419,-0.0395,-0.0393,-0.0375,-0.0348,-0.0333,-0.0288,-0.0259,-0.02,-0.0165,-0.0137,-0.0097,-0.0049,0.0003,-0.0026,-0.0022,0.0011,0.0113,0.0134,0.0146,0.0028,0.0029,0.0031,0.013,0,-0.0433,-0.047,-0.0455,-0.0479,-0.0495,-0.0452,-0.0441,-0.0404,-0.0359,-0.0319,-0.0249,-0.0207,-0.0177,-0.0153,-0.01,-0.002,0.0026,-0.0026,0.0108,0.0112,0.0129,0.0158,0.0177,0.0268,0.0139,0.0141,0.0142,0,-0.0474,-0.0494,-0.0531,-0.0538,-0.0539,-0.054,-0.0506,-0.0486,-0.041,-0.0374,-0.0309,-0.0251,-0.0171,-0.0149,-0.0009,-0.0045,0.0025,0.0087,0.0092,0.0131,0.015,0.0247,0.029,0.0399,0.0157,0.0155,0.0154,0,-0.052,-0.0545,-0.0579,-0.0581,-0.0579,-0.0579,-0.0565,-0.0503,-0.048,-0.0398,-0.037,-0.0267,-0.0206,-0.0107,0.002,0.0008,0.0175,0.0178,0.0262,0.0264,0.0317,0.0321,0.0481,0.0272,0.0272,0.0272,0.0272,0,-0.0568,-0.0594,-0.0607,-0.0627,-0.066,-0.0627,-0.0628,-0.0596,-0.053,-0.0494,-0.0402,-0.0345,-0.0192,-0.0077,0.0021,0.0177,0.0181,0.0268,0.0298,0.0304,0.0305,0.0431,0.0469,0.0276,0.0275,0.0274,0.0273,0,-0.0615,-0.0623,-0.0669,-0.0683,-0.0688,-0.0708,-0.0686,-0.0675,-0.0608,-0.0553,-0.053,-0.0385,-0.0229,-0.008,0.0106,0.0187,0.0397,0.0373,0.0362,0.0389,0.0552,0.0586,0.0766,0.083,0.0481,0.0482,0.0483,0,-0.0644,-0.0674,-0.0719,-0.0747,-0.0758,-0.0773,-0.0779,-0.0725,-0.0699,-0.0573,-0.055,-0.0384,-0.0258,0.0017,0.0203,0.0392,0.047,0.0507,0.0488,0.0577,0.0638,0.0658,0.0699,0.0545,0.0546,0.0547,0.0548,0,-0.0699,-0.0715,-0.0755,-0.0815,-0.0843,-0.0865,-0.0859,-0.0851,-0.0764,-0.0698,-0.057,-0.0455,-0.0175,0.0077,0.0324,0.0428,0.0588,0.0535,0.0647,0.072,0.0735,0.0804,0.045,0.0559,0.0558,0.0557,0.0556,0.0556,-0.0734,-0.0781,-0.0829,-0.0882,-0.0917,-0.0939,-0.0942,-0.0904,-0.0851,-0.0722,-0.06,-0.0404,-0.0036,0.0327,0.0458,0.0726,0.0692,0.0792,0.0831,0.0847,0.0899,0.0556,0.0682,0.0682,0.0682,0.0682,0.0681,0,-0.0774,-0.0823,-0.0884,-0.0948,-0.099,-0.0987,-0.098,-0.0946,-0.0872,-0.0729,-0.058,-0.0181,0.0172,0.0494,0.0889,0.1022,0.1045,0.108,0.1125,0.1156,0.0881,0.0874,0.1025,0.1025,0.1024,0.1024,0.1024,0.1024,-0.0798,-0.0868,-0.0903,-0.0987,-0.1024,-0.1045,-0.1034,-0.0956,-0.0845,-0.0596,-0.0367,-0.0178,0.0286,0.0949,0.1308,0.1323,0.1437,0.141,0.148,0.1295,0.1271,0.1248,0.1253,0.148,0.1481,0.1744,0.1747,0.1749]}],[{"header":{"parameterUnit":"m.s-1","parameterCategory":2,"la1":30.2991,"la2":30.254,"lo1":-89.0895,"lo2":-89.0444,"dy":0.0017,"dx":0.0017,"nx":28,"ny":28,"refTime":"2024-02-06T09:00:00:Z","depth":"2","parameterNumber":2,"parameterNumberName":"U-component_of_CURRENTS"},"data":[0,0,0,0,0,0,0,0,0,0,0,0,0,0,0,0,0,0,0,0,0,0,0,0,0,0,0,0,0,0,0,0,0,0,0,0,0,0,0,0,0,0,0,0,0,0,0,0,0,0,0,0,0,0,0,0,0,0,-0.1851,-0.1851,0,-0.1865,-0.1865,-0.1865,-0.1852,-0.1851,-0.1851,-0.185,-0.1828,-0.1828,-0.1827,0,0,0,0,0,0,0,0,0,0,0,0,0,-0.1812,-0.1812,-0.1851,-0.1851,-0.1852,-0.1865,-0.1865,-0.1865,-0.1852,-0.1851,-0.1851,-0.185,-0.1828,-0.1828,-0.1827,0,0,0,0,0,0,0,0,0,0,0,0,0,-0.1826,-0.1813,-0.1851,-0.1848,-0.1848,-0.1865,-0.1865,-0.1865,-0.1852,-0.1851,-0.1851,-0.185,-0.1828,-0.1828,-0.1827,-0.1835,0,0,-0.1826,-0.1826,0,0,0,0,0,0,0,0,-0.1825,-0.1827,-0.1848,-0.1848,-0.1848,-0.1857,-0.1843,-0.1854,-0.1852,-0.1848,-0.185,-0.185,-0.1836,-0.1835,-0.1836,-0.1834,-0.1833,-0.1826,-0.1826,-0.1825,-0.1825,0,0,0,0,0,0,0,-0.1824,-0.1826,-0.1854,-0.1848,-0.1849,-0.1846,-0.1847,-0.1845,-0.1843,-0.1849,-0.1848,-0.1853,-0.1835,-0.1837,-0.1836,-0.1833,-0.1826,-0.1826,-0.1825,-0.1825,-0.1858,-0.1859,0,0,0,0,0,0,-0.1827,-0.1826,-0.1854,-0.1855,-0.1837,-0.1847,-0.1848,-0.1853,-0.1844,-0.1842,-0.1853,-0.1852,-0.1838,-0.1836,-0.1835,-0.1862,-0.1825,-0.1825,-0.1825,-0.1856,-0.1858,-0.1859,0,0,0,0,0,0,-0.1826,-0.1829,-0.1854,-0.1842,-0.1845,-0.1848,-0.1854,-0.1854,-0.1857,-0.1848,-0.1845,-0.1857,-0.1837,-0.1835,-0.1839,-0.186,-0.1825,-0.1825,-0.1855,-0.1857,-0.1858,-0.1903,0,0,0,0,0,0,-0.1825,-0.1829,-0.1831,-0.1842,-0.1846,-0.1869,-0.1855,-0.1855,-0.1862,-0.186,-0.1851,-0.1848,-0.1837,-0.184,-0.1838,-0.1859,-0.1824,-0.1854,-0.1856,-0.1858,-0.19,-0.1906,-0.1911,0,0,0,0,0,-0.1823,-0.1832,-0.1831,-0.1834,-0.185,-0.1869,-0.1871,-0.187,-0.1863,-0.1869,-0.1863,-0.1848,-0.1852,-0.184,-0.1838,-0.1859,-0.1853,-0.1855,-0.1858,-0.1898,-0.1905,-0.1911,0,0,0,0,0,0,-0.1813,-0.1832,-0.1831,-0.1843,-0.1857,-0.1868,-0.1872,-0.1874,-0.1875,-0.1871,-0.1858,-0.1855,-0.1868,-0.1858,-0.1845,-0.1876,-0.1852,-0.1854,-0.1883,-0.189,-0.1895,-0.1894,-0.1824,0,0,0,0,0,-0.1814,-0.1823,-0.1842,-0.1849,-0.1858,-0.1866,-0.1872,-0.1876,-0.188,-0.188,-0.1875,-0.1873,-0.1878,-0.1879,-0.1879,-0.1892,-0.187,-0.1907,-0.1912,-0.1917,-0.1916,-0.1907,-0.1911,-0.1867,-0.1867,-0.1867,0,0,-0.1811,-0.1822,-0.1826,-0.1848,-0.1855,-0.1878,-0.1868,-0.1883,-0.1901,-0.1877,-0.1893,-0.189,-0.1886,-0.1903,-0.1909,-0.1896,-0.1916,-0.192,-0.1924,-0.192,-0.1909,-0.1914,-0.1917,-0.1869,-0.1869,-0.1868,0,0,-0.1816,-0.1822,-0.1835,-0.1853,-0.1873,-0.1883,-0.1891,-0.1908,-0.1914,-0.1932,-0.1923,-0.193,-0.1936,-0.1939,-0.1942,-0.1977,-0.1946,-0.1983,-0.2008,-0.2,-0.2003,-0.2006,-0.1974,-0.1973,-0.1986,-0.1986,-0.1986,0,-0.1812,-0.183,-0.1841,-0.1864,-0.188,-0.1889,-0.1912,-0.1927,-0.1943,-0.195,-0.1942,-0.1957,-0.1955,-0.1975,-0.1992,-0.1989,-0.197,-0.1983,-0.2006,-0.2008,-0.201,-0.1976,-0.1975,-0.1988,-0.1988,-0.1988,-0.1987,0,-0.1831,-0.1849,-0.186,-0.1891,-0.1912,-0.1931,-0.1959,-0.1977,-0.1983,-0.1993,-0.2012,-0.2009,-0.2015,-0.2024,-0.202,-0.204,-0.2017,-0.2013,-0.1986,-0.2017,-0.198,-0.1977,-0.1992,-0.1991,-0.199,-0.1989,0,0,-0.1808,-0.1862,-0.1864,-0.1885,-0.1927,-0.1945,-0.1982,-0.2012,-0.2029,-0.2045,-0.2058,-0.208,-0.2071,-0.2074,-0.207,-0.2068,-0.2066,-0.2051,-0.2049,-0.2013,-0.2029,-0.197,-0.1961,-0.2066,-0.2067,-0.2067,-0.1995,0,-0.1815,-0.1859,-0.1886,-0.1928,-0.1952,-0.1983,-0.2016,-0.2046,-0.2062,-0.2078,-0.2082,-0.2094,-0.2093,-0.2095,-0.2096,-0.2075,-0.2064,-0.2085,-0.201,-0.2007,-0.1947,-0.1959,-0.1834,-0.1757,-0.1992,-0.1992,-0.1991,0,-0.182,-0.1849,-0.1889,-0.1946,-0.1959,-0.1988,-0.2032,-0.2064,-0.2096,-0.2107,-0.212,-0.2119,-0.2127,-0.2116,-0.2091,-0.2104,-0.2072,-0.2049,-0.2046,-0.1973,-0.1945,-0.1767,-0.1743,-0.1987,-0.1987,-0.1988,-0.1988,0,-0.1786,-0.1848,-0.1877,-0.1898,-0.1965,-0.1988,-0.2022,-0.2066,-0.2086,-0.2119,-0.2127,-0.2136,-0.2133,-0.2108,-0.2073,-0.2082,-0.2026,-0.2028,-0.1939,-0.1933,-0.1802,-0.1785,-0.2,-0.2001,-0.2001,-0.2001,-0.2001,0,-0.1776,-0.1798,-0.1865,-0.188,-0.1915,-0.1972,-0.2005,-0.2042,-0.2082,-0.2094,-0.2133,-0.2129,-0.2133,-0.2105,-0.2069,-0.199,-0.2019,-0.1937,-0.1914,-0.1814,-0.18,-0.1984,-0.1983,-0.1998,-0.1999,-0.1999,-0.2,0,-0.1727,-0.1773,-0.1809,-0.1879,-0.1899,-0.1922,-0.1989,-0.2003,-0.2062,-0.2075,-0.2084,-0.2119,-0.2081,-0.2063,-0.2012,-0.1974,-0.191,-0.1872,-0.1746,-0.171,-0.1821,-0.1824,-0.1763,-0.1761,-0.1759,-0.1757,-0.1755,0,-0.1704,-0.1717,-0.1787,-0.1798,-0.1827,-0.1872,-0.1891,-0.1972,-0.1987,-0.2051,-0.2039,-0.2041,-0.2006,-0.192,-0.1855,-0.1768,-0.1827,-0.1608,-0.161,-0.1815,-0.1798,-0.1804,-0.181,-0.1446,-0.1442,-0.1439,-0.1437,0,-0.1648,-0.1673,-0.1696,-0.1723,-0.1747,-0.1779,-0.182,-0.1834,-0.1913,-0.1929,-0.1929,-0.1913,-0.1859,-0.1722,-0.164,-0.1575,-0.1617,-0.154,-0.1775,-0.1537,-0.1513,-0.1498,-0.1514,-0.1408,-0.1411,-0.1413,-0.1414,-0.1415,-0.1587,-0.1588,-0.1612,-0.1628,-0.1654,-0.1663,-0.1649,-0.1693,-0.1703,-0.1696,-0.1758,-0.1686,-0.1671,-0.1476,-0.1388,-0.1322,-0.1428,-0.1362,-0.1373,-0.1387,-0.1375,-0.135,-0.121,-0.1211,-0.1213,-0.1214,-0.1215,0,-0.1501,-0.1505,-0.1512,-0.1524,-0.15,-0.1556,-0.1569,-0.1526,-0.1488,-0.1508,-0.1484,-0.1325,-0.1244,-0.1227,-0.1089,-0.1061,-0.1062,-0.101,-0.1016,-0.1044,-0.107,-0.1043,-0.0788,-0.0787,-0.0786,-0.0785,0,0,-0.1452,-0.142,-0.1423,-0.1357,-0.1361,-0.1294,-0.1275,-0.1229,-0.1213,-0.1128,-0.109,-0.1174,-0.12,-0.0998,-0.0948,-0.0847,-0.0937,-0.0804,-0.1147,-0.1183,-0.1207,-0.1272,-0.1262,0,0,0,0,0]},{"header":{"parameterUnit":"m.s-1","parameterCategory":2,"la1":30.2991,"la2":30.254,"lo1":-89.0895,"lo2":-89.0444,"dy":0.0017,"dx":0.0017,"nx":28,"ny":28,"refTime":"2024-02-06T09:00:00:Z","depth":"2","parameterNumber":3,"parameterNumberName":"V-component_of_CURRENTS"},"data":[0,0,0,0,0,0,0,0,0,0,0,0,0,0,0,0,0,0,0,0,0,0,0,0,0,0,0,0,0,0,0,0,0,0,0,0,0,0,0,0,0,0,0,0,0,0,0,0,0,0,0,0,0,0,0,0,0,0,-0.029,-0.0289,0,-0.0249,-0.0248,-0.0248,-0.0219,-0.0219,-0.0219,-0.0219,-0.014,-0.0139,-0.0137,0,0,0,0,0,0,0,0,0,0,0,0,0,-0.0304,-0.0304,-0.029,-0.0289,-0.0289,-0.0249,-0.0248,-0.0248,-0.0219,-0.0219,-0.0219,-0.0219,-0.0141,-0.0139,-0.0137,0,0,0,0,0,0,0,0,0,0,0,0,0,-0.0283,-0.0304,-0.029,-0.027,-0.0268,-0.0249,-0.0248,-0.0248,-0.022,-0.0219,-0.0219,-0.0219,-0.0142,-0.0139,-0.0136,-0.0123,0,0,-0.0127,-0.0126,0,0,0,0,0,0,0,0,-0.0285,-0.0283,-0.0274,-0.0272,-0.0269,-0.024,-0.0225,-0.0204,-0.022,-0.0237,-0.0219,-0.0219,-0.0171,-0.0165,-0.0158,-0.0119,-0.0116,-0.0127,-0.0125,-0.0124,-0.0123,0,0,0,0,0,0,0,-0.0286,-0.0284,-0.0273,-0.0273,-0.027,-0.025,-0.0248,-0.0221,-0.0205,-0.0236,-0.0234,-0.023,-0.0169,-0.0161,-0.0156,-0.0115,-0.0127,-0.0125,-0.0123,-0.0122,-0.0059,-0.0059,0,0,0,0,0,0,-0.0295,-0.0286,-0.0274,-0.0272,-0.0277,-0.0251,-0.0247,-0.0249,-0.0206,-0.0199,-0.0231,-0.0229,-0.0166,-0.0159,-0.0153,-0.0133,-0.0124,-0.0121,-0.012,-0.0059,-0.0059,-0.0059,0,0,0,0,0,0,-0.0295,-0.0294,-0.0276,-0.0278,-0.0274,-0.0251,-0.0253,-0.0248,-0.024,-0.0202,-0.0195,-0.0227,-0.0165,-0.0157,-0.013,-0.013,-0.012,-0.0117,-0.0059,-0.0059,-0.0059,-0.0094,0,0,0,0,0,0,-0.0296,-0.0295,-0.03,-0.0279,-0.0275,-0.027,-0.0253,-0.0248,-0.0239,-0.0237,-0.0197,-0.019,-0.0165,-0.0134,-0.0127,-0.0126,-0.0115,-0.0059,-0.0059,-0.0059,-0.0093,-0.0095,-0.0098,0,0,0,0,0,-0.0297,-0.0307,-0.03,-0.0299,-0.0282,-0.027,-0.0266,-0.0248,-0.0239,-0.0239,-0.021,-0.0191,-0.013,-0.0132,-0.0123,-0.0121,-0.0059,-0.0059,-0.0059,-0.0092,-0.0095,-0.0098,0,0,0,0,0,0,-0.0315,-0.0304,-0.0297,-0.0303,-0.0289,-0.0266,-0.0265,-0.0251,-0.0229,-0.0226,-0.0189,-0.018,-0.0158,-0.0135,-0.0138,-0.0104,-0.0092,-0.0091,-0.012,-0.0123,-0.0125,-0.0133,-0.0113,0,0,0,0,0,-0.0322,-0.0327,-0.031,-0.0314,-0.031,-0.0288,-0.0281,-0.0269,-0.0246,-0.0237,-0.0208,-0.0178,-0.0152,-0.0134,-0.011,-0.0088,-0.0058,-0.0082,-0.0084,-0.0087,-0.0087,-0.0039,-0.0037,-0.006,-0.006,-0.006,0,0,-0.033,-0.0324,-0.0327,-0.0318,-0.0307,-0.0307,-0.0283,-0.0277,-0.0273,-0.0231,-0.0216,-0.0187,-0.0149,-0.0127,-0.0115,-0.0107,-0.0065,-0.0087,-0.0089,-0.0089,-0.0039,-0.0037,-0.0035,-0.006,-0.006,-0.006,0,0,-0.0354,-0.0345,-0.0359,-0.035,-0.0338,-0.0323,-0.0323,-0.0301,-0.0287,-0.0269,-0.0238,-0.0207,-0.017,-0.0139,-0.0119,-0.0119,-0.0082,-0.0115,-0.0128,-0.0081,-0.0079,-0.0076,-0.0039,-0.0032,-0.0113,-0.0113,-0.0113,0,-0.0364,-0.038,-0.036,-0.0369,-0.0366,-0.0333,-0.0344,-0.0324,-0.0295,-0.0281,-0.027,-0.0206,-0.0174,-0.0137,-0.0139,-0.0123,-0.0095,-0.0121,-0.0084,-0.0081,-0.0078,-0.0039,-0.0032,-0.0114,-0.0114,-0.0114,-0.0114,0,-0.0398,-0.0409,-0.0415,-0.0416,-0.0407,-0.0411,-0.0382,-0.0369,-0.0347,-0.0321,-0.0283,-0.0235,-0.0195,-0.018,-0.0158,-0.0122,-0.0109,-0.0095,-0.0077,-0.0077,-0.0037,-0.0029,-0.0117,-0.0116,-0.0116,-0.0115,0,0,-0.0429,-0.0439,-0.0441,-0.0454,-0.0433,-0.0433,-0.0419,-0.0397,-0.0386,-0.0345,-0.0321,-0.0268,-0.0235,-0.0211,-0.0173,-0.013,-0.0084,-0.0108,-0.0104,-0.0072,0.0015,0.0035,0.0046,-0.0063,-0.0062,-0.0061,0.0032,0,-0.0463,-0.0499,-0.0486,-0.0511,-0.0527,-0.049,-0.0482,-0.0452,-0.0413,-0.0379,-0.0315,-0.0279,-0.0248,-0.0226,-0.0179,-0.0106,-0.0063,-0.011,0.0011,0.0015,0.0032,0.0056,0.0029,0.011,0.0041,0.0042,0.0043,0,-0.0502,-0.0521,-0.0557,-0.0567,-0.0569,-0.0572,-0.0547,-0.0531,-0.0466,-0.0435,-0.0376,-0.0324,-0.0251,-0.0228,-0.01,-0.0133,-0.0067,-0.001,-0.0004,0.0033,0.005,0.0101,0.0128,0.0057,0.0056,0.0055,0.0054,0,-0.0543,-0.0569,-0.0603,-0.0605,-0.0607,-0.0611,-0.06,-0.0549,-0.0531,-0.046,-0.0436,-0.0343,-0.0288,-0.0195,-0.0076,-0.0087,0.0065,0.0068,0.0149,0.0151,0.0161,0.0162,0.0154,0.0154,0.0154,0.0154,0.0154,0,-0.0588,-0.0614,-0.0628,-0.0648,-0.0682,-0.0655,-0.0661,-0.0634,-0.058,-0.0553,-0.0467,-0.0419,-0.0276,-0.0171,-0.0077,0.0067,0.0069,0.0154,0.0182,0.0148,0.0146,0.0125,0.012,0.0157,0.0157,0.0156,0.0155,0,-0.0631,-0.064,-0.0685,-0.0702,-0.0708,-0.0729,-0.0716,-0.071,-0.0653,-0.061,-0.059,-0.046,-0.0316,-0.0176,-0.0004,0.0074,0.0201,0.0248,0.0196,0.0215,0.0252,0.0245,0.0347,0.0349,0.035,0.0351,0.0352,0,-0.0658,-0.0686,-0.0732,-0.076,-0.0773,-0.0791,-0.08,-0.0756,-0.0738,-0.0632,-0.0615,-0.0463,-0.035,-0.0093,0.008,0.0258,0.0253,0.0326,0.0304,0.0259,0.0275,0.0265,0.0256,0.0304,0.0304,0.0305,0.0305,0,-0.0709,-0.0726,-0.0764,-0.0823,-0.0853,-0.0878,-0.0879,-0.0876,-0.0804,-0.075,-0.0641,-0.0538,-0.0281,-0.0068,0.0166,0.0258,0.0295,0.034,0.0327,0.0254,0.0225,0.0238,0.0229,0.0308,0.0308,0.0308,0.0308,0.0307,-0.0742,-0.0787,-0.0833,-0.0886,-0.0923,-0.0948,-0.0955,-0.0926,-0.0886,-0.0773,-0.0671,-0.0496,-0.0284,0.0053,0.0221,0.0367,0.0357,0.0383,0.0379,0.0376,0.0349,0.0323,0.042,0.0421,0.0421,0.0421,0.0421,0,-0.078,-0.0827,-0.0886,-0.0949,-0.0991,-0.0992,-0.0994,-0.0964,-0.0902,-0.0777,-0.0646,-0.0412,-0.0171,0.0041,0.0281,0.0422,0.0401,0.0435,0.0382,0.0378,0.0374,0.0345,0.0417,0.0417,0.0418,0.0418,0,0,-0.0803,-0.087,-0.0902,-0.0985,-0.1024,-0.1049,-0.1043,-0.0971,-0.0874,-0.0732,-0.0596,-0.0418,-0.0164,0.0008,0.0191,0.0316,0.0306,0.0319,0.0305,0.0216,0.0211,0.0325,0.0273,0,0,0,0,0]}],[{"header":{"parameterUnit":"m.s-1","parameterCategory":2,"la1":30.2991,"la2":30.254,"lo1":-89.0895,"lo2":-89.0444,"dy":0.0017,"dx":0.0017,"nx":28,"ny":28,"refTime":"2024-02-06T09:00:00:Z","depth":"4","parameterNumber":2,"parameterNumberName":"U-component_of_CURRENTS"},"data":[0,0,0,0,0,0,0,0,0,0,0,0,0,0,0,0,0,0,0,0,0,0,0,0,0,0,0,0,0,0,0,0,0,0,0,0,0,0,0,0,0,0,0,0,0,0,0,0,0,0,0,0,0,0,0,0,0,0,-0.1247,-0.1247,0,-0.1284,-0.1285,-0.1285,-0.1312,-0.1313,-0.1313,-0.1313,-0.134,-0.1341,-0.1341,0,0,0,0,0,0,0,0,0,0,0,0,0,-0.1194,-0.1195,-0.1247,-0.1247,-0.1248,-0.1284,-0.1285,-0.1285,-0.1312,-0.1313,-0.1313,-0.1314,-0.134,-0.1341,-0.1341,0,0,0,0,0,0,0,0,0,0,0,0,0,-0.1222,-0.1195,-0.1246,-0.1267,-0.1269,-0.1284,-0.1285,-0.1285,-0.1312,-0.1313,-0.1313,-0.1314,-0.134,-0.134,-0.1341,-0.1334,0,0,-0.1343,-0.1343,0,0,0,0,0,0,0,0,-0.122,-0.1223,-0.1263,-0.1265,-0.1268,-0.1295,-0.1276,-0.1302,-0.1312,-0.1294,-0.1313,-0.1314,-0.1325,-0.1327,-0.1331,-0.1336,-0.1337,-0.1343,-0.1343,-0.1344,-0.1344,0,0,0,0,0,0,0,-0.1218,-0.1222,-0.126,-0.1264,-0.1267,-0.1273,-0.1277,-0.1281,-0.1305,-0.1296,-0.1298,-0.1305,-0.1326,-0.133,-0.1332,-0.1337,-0.1343,-0.1343,-0.1344,-0.1344,-0.14,-0.1401,0,0,0,0,0,0,-0.1216,-0.122,-0.1259,-0.1261,-0.1246,-0.1273,-0.1278,-0.1285,-0.1305,-0.1309,-0.1304,-0.1306,-0.1329,-0.1331,-0.1333,-0.1385,-0.1344,-0.1344,-0.1344,-0.1399,-0.14,-0.1402,0,0,0,0,0,0,-0.1215,-0.1219,-0.1258,-0.1243,-0.1248,-0.1274,-0.1281,-0.1285,-0.1312,-0.1312,-0.1315,-0.1329,-0.1329,-0.1332,-0.1357,-0.1384,-0.1344,-0.1345,-0.1398,-0.1399,-0.1401,-0.1452,0,0,0,0,0,0,-0.1213,-0.1218,-0.1232,-0.1243,-0.1249,-0.1282,-0.1281,-0.1286,-0.1314,-0.1317,-0.1334,-0.1335,-0.133,-0.1357,-0.1358,-0.1384,-0.1345,-0.1396,-0.1398,-0.14,-0.1449,-0.1455,-0.1461,0,0,0,0,0,-0.1211,-0.1225,-0.1232,-0.1237,-0.1263,-0.1283,-0.1288,-0.1306,-0.1315,-0.1331,-0.1344,-0.1336,-0.1371,-0.1358,-0.1359,-0.1386,-0.1395,-0.1398,-0.14,-0.1446,-0.1454,-0.146,0,0,0,0,0,0,-0.121,-0.1229,-0.1237,-0.1257,-0.1277,-0.1289,-0.1307,-0.1319,-0.1341,-0.135,-0.1348,-0.1351,-0.1384,-0.1378,-0.1363,-0.1409,-0.1383,-0.1386,-0.1417,-0.1424,-0.143,-0.1426,-0.1346,0,0,0,0,0,-0.1215,-0.1232,-0.1249,-0.1267,-0.1279,-0.1297,-0.1311,-0.1326,-0.1342,-0.1354,-0.1366,-0.1379,-0.1392,-0.1403,-0.1411,-0.1434,-0.1412,-0.1453,-0.1459,-0.1464,-0.1462,-0.1454,-0.1459,-0.141,-0.141,-0.141,0,0,-0.122,-0.1233,-0.1244,-0.1269,-0.1285,-0.1308,-0.1308,-0.1337,-0.1362,-0.1352,-0.1394,-0.1401,-0.1403,-0.1431,-0.1446,-0.1432,-0.1466,-0.1468,-0.1472,-0.1467,-0.1457,-0.1462,-0.1466,-0.1412,-0.1411,-0.1411,0,0,-0.1232,-0.1251,-0.1268,-0.1288,-0.1318,-0.133,-0.1344,-0.1371,-0.1392,-0.1426,-0.1428,-0.1449,-0.1473,-0.1477,-0.1482,-0.1524,-0.1498,-0.1535,-0.1562,-0.1555,-0.1559,-0.1561,-0.1535,-0.1535,-0.1538,-0.1538,-0.1538,0,-0.1241,-0.1261,-0.1277,-0.13,-0.132,-0.1343,-0.1368,-0.1392,-0.1427,-0.1442,-0.1449,-0.1486,-0.1492,-0.1515,-0.1536,-0.1537,-0.1522,-0.1535,-0.1562,-0.1564,-0.1566,-0.1538,-0.1538,-0.1541,-0.1541,-0.154,-0.154,0,-0.1258,-0.1286,-0.13,-0.1335,-0.1359,-0.1386,-0.1417,-0.1449,-0.1476,-0.1494,-0.1532,-0.154,-0.1558,-0.1571,-0.157,-0.1594,-0.1576,-0.1569,-0.1541,-0.1574,-0.1543,-0.1541,-0.1545,-0.1544,-0.1543,-0.1543,0,0,-0.1244,-0.1301,-0.1308,-0.1332,-0.1381,-0.14,-0.1447,-0.1484,-0.1511,-0.1549,-0.1574,-0.1609,-0.1614,-0.1618,-0.1621,-0.1622,-0.1629,-0.161,-0.1608,-0.1579,-0.1602,-0.1505,-0.1493,-0.1631,-0.1631,-0.1631,-0.1573,0,-0.1253,-0.1296,-0.1326,-0.1375,-0.1399,-0.144,-0.1478,-0.1518,-0.155,-0.1581,-0.1597,-0.1623,-0.1632,-0.1644,-0.165,-0.1634,-0.1628,-0.1644,-0.1579,-0.1576,-0.1482,-0.149,-0.1632,-0.1571,-0.1571,-0.1571,-0.157,0,-0.1253,-0.1284,-0.1331,-0.1392,-0.1407,-0.1444,-0.1501,-0.1539,-0.1585,-0.1608,-0.1637,-0.1647,-0.1666,-0.1663,-0.165,-0.1663,-0.164,-0.1621,-0.1618,-0.1507,-0.1476,-0.1533,-0.1567,-0.1567,-0.1568,-0.1568,-0.1568,0,-0.1216,-0.1284,-0.1321,-0.1344,-0.1417,-0.1451,-0.1493,-0.1548,-0.1574,-0.1625,-0.1639,-0.1663,-0.1672,-0.1658,-0.1637,-0.1647,-0.1602,-0.1604,-0.1489,-0.1481,-0.1564,-0.1561,-0.1584,-0.1584,-0.1584,-0.1584,-0.1584,0,-0.1196,-0.123,-0.1313,-0.1332,-0.1379,-0.144,-0.1488,-0.1532,-0.1582,-0.1595,-0.1651,-0.1646,-0.1675,-0.1655,-0.1632,-0.1547,-0.1596,-0.1484,-0.1459,-0.1586,-0.1587,-0.1562,-0.156,-0.1582,-0.1582,-0.1583,-0.1583,0,-0.1142,-0.1199,-0.1248,-0.1334,-0.1363,-0.1397,-0.148,-0.1497,-0.1566,-0.1581,-0.1596,-0.1635,-0.1606,-0.1607,-0.1572,-0.1523,-0.1461,-0.1419,-0.1543,-0.1527,-0.1346,-0.1348,-0.1277,-0.1273,-0.1269,-0.1267,-0.1264,0,-0.1114,-0.1134,-0.1233,-0.1256,-0.1299,-0.1362,-0.1387,-0.1473,-0.1485,-0.1549,-0.1531,-0.1544,-0.1552,-0.1415,-0.144,-0.1372,-0.1361,-0.1323,-0.1348,-0.1331,-0.1314,-0.1321,-0.1327,-0.1259,-0.1258,-0.1257,-0.1256,0,-0.1053,-0.11,-0.1136,-0.1184,-0.1225,-0.1264,-0.1313,-0.1312,-0.1389,-0.1466,-0.1422,-0.1399,-0.1361,-0.1331,-0.1292,-0.1249,-0.1346,-0.1288,-0.1295,-0.1318,-0.1309,-0.1297,-0.1307,-0.1245,-0.1246,-0.1248,-0.1248,0,-0.1003,-0.1013,-0.106,-0.1091,-0.1137,-0.1139,-0.1187,-0.1191,-0.1219,-0.1297,-0.1273,-0.1289,-0.1336,-0.1264,-0.1223,-0.1178,-0.1163,-0.113,-0.1145,-0.1158,-0.1148,-0.112,-0.0966,0,0,0,0,0,-0.0944,-0.0936,-0.0957,-0.0982,-0.1021,-0.1046,-0.1113,-0.1159,-0.1238,-0.1168,-0.1221,-0.1179,-0.1129,-0.1141,-0.1066,-0.1166,-0.1168,-0.1076,-0.1138,-0.1181,-0.1194,-0.1195,0,0,0,0,0,0,-0.09,-0.0916,-0.0919,-0.0876,-0.0868,-0.0896,-0.0933,-0.0992,-0.0968,-0.1055,-0.1029,-0.1101,-0.1064,-0.114,-0.1036,-0.1039,-0.1053,-0.1099,-0.1095,-0.1173,-0.1185,-0.1196,-0.1201,0,0,0,0,0]},{"header":{"parameterUnit":"m.s-1","parameterCategory":2,"la1":30.2991,"la2":30.254,"lo1":-89.0895,"lo2":-89.0444,"dy":0.0017,"dx":0.0017,"nx":28,"ny":28,"refTime":"2024-02-06T09:00:00:Z","depth":"4","parameterNumber":3,"parameterNumberName":"V-component_of_CURRENTS"},"data":[0,0,0,0,0,0,0,0,0,0,0,0,0,0,0,0,0,0,0,0,0,0,0,0,0,0,0,0,0,0,0,0,0,0,0,0,0,0,0,0,0,0,0,0,0,0,0,0,0,0,0,0,0,0,0,0,0,0,-0.0243,-0.0242,0,-0.0221,-0.022,-0.022,-0.0206,-0.0206,-0.0206,-0.0206,-0.0154,-0.0153,-0.0152,0,0,0,0,0,0,0,0,0,0,0,0,0,-0.0244,-0.0244,-0.0243,-0.0242,-0.0242,-0.0221,-0.022,-0.022,-0.0206,-0.0206,-0.0206,-0.0206,-0.0155,-0.0153,-0.0152,0,0,0,0,0,0,0,0,0,0,0,0,0,-0.0235,-0.0244,-0.0243,-0.0233,-0.0232,-0.0221,-0.022,-0.022,-0.0206,-0.0206,-0.0206,-0.0206,-0.0155,-0.0153,-0.0151,-0.014,0,0,-0.0145,-0.0144,0,0,0,0,0,0,0,0,-0.0235,-0.0234,-0.0235,-0.0234,-0.0233,-0.0217,-0.0202,-0.0192,-0.0206,-0.0216,-0.0206,-0.0206,-0.0173,-0.0169,-0.0165,-0.0137,-0.0135,-0.0145,-0.0144,-0.0143,-0.0142,0,0,0,0,0,0,0,-0.0236,-0.0235,-0.0233,-0.0235,-0.0233,-0.022,-0.0219,-0.02,-0.0194,-0.0215,-0.0214,-0.0212,-0.0172,-0.0167,-0.0164,-0.0134,-0.0145,-0.0143,-0.0142,-0.0141,-0.0103,-0.0104,0,0,0,0,0,0,-0.0241,-0.0236,-0.0234,-0.0233,-0.0234,-0.022,-0.0219,-0.0221,-0.0195,-0.0191,-0.0212,-0.0212,-0.017,-0.0166,-0.0162,-0.0154,-0.0143,-0.0141,-0.014,-0.0103,-0.0103,-0.0104,0,0,0,0,0,0,-0.0241,-0.0241,-0.0235,-0.0234,-0.0232,-0.0221,-0.0223,-0.0221,-0.022,-0.0193,-0.0189,-0.0214,-0.017,-0.0164,-0.0148,-0.0152,-0.014,-0.0138,-0.0103,-0.0103,-0.0104,-0.0134,0,0,0,0,0,0,-0.0242,-0.0242,-0.0248,-0.0235,-0.0233,-0.0234,-0.0223,-0.0221,-0.0219,-0.0218,-0.0193,-0.0188,-0.017,-0.0151,-0.0146,-0.0149,-0.0137,-0.0103,-0.0103,-0.0103,-0.0133,-0.0135,-0.0137,0,0,0,0,0,-0.0242,-0.0251,-0.0248,-0.0248,-0.0241,-0.0234,-0.0232,-0.0223,-0.0219,-0.0221,-0.0203,-0.0189,-0.015,-0.015,-0.0144,-0.0146,-0.0102,-0.0103,-0.0103,-0.0131,-0.0135,-0.0137,0,0,0,0,0,0,-0.0254,-0.025,-0.0247,-0.0254,-0.0248,-0.0232,-0.0235,-0.0227,-0.0215,-0.0215,-0.0188,-0.0182,-0.0171,-0.0154,-0.0154,-0.0137,-0.0125,-0.0124,-0.0149,-0.0151,-0.0154,-0.016,-0.0135,0,0,0,0,0,-0.0261,-0.0267,-0.0257,-0.0264,-0.0262,-0.0249,-0.0247,-0.024,-0.0227,-0.0222,-0.0204,-0.0184,-0.0168,-0.0157,-0.0141,-0.0128,-0.0105,-0.0126,-0.0128,-0.0131,-0.0132,-0.0099,-0.0098,-0.0105,-0.0105,-0.0105,0,0,-0.0268,-0.0266,-0.027,-0.0267,-0.0262,-0.0265,-0.0248,-0.0248,-0.0248,-0.0217,-0.0213,-0.0193,-0.0167,-0.0155,-0.0149,-0.0141,-0.0117,-0.0131,-0.0133,-0.0133,-0.0099,-0.0099,-0.0098,-0.0106,-0.0106,-0.0105,0,0,-0.0286,-0.0284,-0.0297,-0.0293,-0.0289,-0.0279,-0.0281,-0.0269,-0.0263,-0.0254,-0.0233,-0.0213,-0.019,-0.017,-0.0156,-0.0161,-0.0133,-0.016,-0.0173,-0.0141,-0.014,-0.0139,-0.0111,-0.0107,-0.0158,-0.0158,-0.0158,0,-0.0296,-0.0311,-0.0299,-0.0308,-0.0309,-0.0289,-0.0301,-0.0289,-0.0273,-0.0267,-0.0258,-0.0219,-0.0196,-0.0175,-0.0177,-0.0166,-0.0146,-0.0164,-0.0144,-0.0142,-0.014,-0.0112,-0.0107,-0.016,-0.0159,-0.0159,-0.0159,0,-0.0322,-0.0334,-0.0341,-0.0347,-0.0345,-0.0352,-0.0335,-0.033,-0.0318,-0.0303,-0.0283,-0.0247,-0.0223,-0.0213,-0.0196,-0.0175,-0.0164,-0.0153,-0.0136,-0.0141,-0.0111,-0.0106,-0.0162,-0.0161,-0.0161,-0.016,0,0,-0.0342,-0.0358,-0.0361,-0.0375,-0.0368,-0.0371,-0.0368,-0.036,-0.0358,-0.0332,-0.0322,-0.0286,-0.0262,-0.0246,-0.0217,-0.0186,-0.0156,-0.0168,-0.0165,-0.0141,-0.0088,-0.0083,-0.0076,-0.0141,-0.014,-0.014,-0.0072,0,-0.0368,-0.0401,-0.0397,-0.0425,-0.044,-0.0421,-0.0422,-0.0408,-0.0386,-0.0369,-0.0323,-0.0303,-0.0276,-0.0262,-0.0227,-0.0174,-0.0143,-0.0175,-0.0086,-0.0084,-0.0079,-0.007,-0.0137,-0.0068,-0.0067,-0.0066,-0.0065,0,-0.0395,-0.0415,-0.0451,-0.0471,-0.0475,-0.0486,-0.0482,-0.0476,-0.044,-0.0421,-0.0384,-0.0346,-0.0295,-0.0273,-0.018,-0.0203,-0.0151,-0.0108,-0.0104,-0.0085,-0.0068,-0.0061,-0.0055,-0.0056,-0.0056,-0.0057,-0.0058,0,-0.0421,-0.0452,-0.0486,-0.0492,-0.0507,-0.0519,-0.052,-0.0496,-0.0491,-0.0449,-0.0437,-0.0371,-0.0333,-0.0262,-0.0169,-0.0175,-0.0065,-0.006,-0.0005,-0.0004,-0.0016,-0.0018,0.0003,0.0003,0.0003,0.0003,0.0003,0,-0.0448,-0.0476,-0.0505,-0.0524,-0.0564,-0.0554,-0.0576,-0.0564,-0.0537,-0.0527,-0.0466,-0.0435,-0.0328,-0.025,-0.0174,-0.007,-0.0066,-0.0005,0.0015,-0.0031,-0.0035,-0.0012,-0.0015,0.0005,0.0005,0.0004,0.0004,0,-0.047,-0.0489,-0.0535,-0.0567,-0.0581,-0.0607,-0.0623,-0.0627,-0.0598,-0.0579,-0.0566,-0.0476,-0.0369,-0.0262,-0.0132,-0.0075,0.0021,0.0056,-0.0001,0.0014,0.006,0.0055,0.0119,0.012,0.012,0.0121,0.0121,0,-0.0483,-0.051,-0.0572,-0.0604,-0.0625,-0.0658,-0.0677,-0.0663,-0.0658,-0.0599,-0.0589,-0.0484,-0.0412,-0.0222,-0.0114,0.0035,0.0054,0.0096,0.0077,0.0059,0.0073,0.0066,0.0061,0.0122,0.0122,0.0123,0.0123,0,-0.0508,-0.0536,-0.0574,-0.064,-0.0681,-0.0717,-0.0737,-0.0736,-0.0702,-0.0684,-0.059,-0.0483,-0.0357,-0.0212,-0.0091,0.0012,0.0064,0.0104,0.0103,0.0085,0.0064,0.0075,0.0069,0.0125,0.0125,0.0125,0.0124,0,-0.0526,-0.0563,-0.0615,-0.0669,-0.0724,-0.0752,-0.0761,-0.0739,-0.0726,-0.0652,-0.0619,-0.0478,-0.0392,-0.0223,-0.0115,-0.0009,0.0012,0.0032,0.0035,0.0034,-0.0012,-0.0052,-0.0006,0,0,0,0,0,-0.0536,-0.0578,-0.0634,-0.0695,-0.0746,-0.0771,-0.0789,-0.0783,-0.0752,-0.0688,-0.0649,-0.0527,-0.0338,-0.0254,-0.0145,-0.0117,0.0016,0.0011,0.0037,0.0138,0.0135,0.0095,0,0,0,0,0,0,-0.0547,-0.0605,-0.0634,-0.0697,-0.0736,-0.0784,-0.0793,-0.0772,-0.0728,-0.068,-0.0576,-0.0514,-0.0331,-0.0399,-0.0146,-0.0114,-0.0086,0.0101,0.0103,0.0139,0.0137,0.0135,0.0093,0,0,0,0,0]}]]